| time (UTC) | temp C | wind direction | speed KPH | gust KPH | rain 1hr cm | rain 24hr cm | rain mn cm | humidity % | barometer mb |
| 20260507021102 | 11 | 87 | 3.2 | 3.2 | 0.00 | 0.05 | 0.05 | 67 | 1018.6 |
| 20260507020601 | 11 | 105 | 3.2 | 3.2 | 0.00 | 0.05 | 0.05 | 66 | 1018.5 |
| 20260507020057 | 11 | 92 | 3.2 | 4.8 | 0.00 | 0.05 | 0.05 | 65 | 1018.5 |
| 20260507015556 | 11 | 85 | 3.2 | 3.2 | 0.00 | 0.05 | 0.05 | 64 | 1018.3 |
| 20260507015052 | 11 | 83 | 3.2 | 3.2 | 0.00 | 0.05 | 0.05 | 64 | 1018.1 |
| 20260507014549 | 11 | 63 | 3.2 | 3.2 | 0.00 | 0.05 | 0.05 | 63 | 1018.1 |
| 20260507014045 | 11 | 107 | 3.2 | 3.2 | 0.00 | 0.05 | 0.05 | 63 | 1018.1 |
| 20260507013542 | 12 | 89 | 3.2 | 4.8 | 0.00 | 0.05 | 0.05 | 63 | 1018.3 |
| 20260507013039 | 12 | 68 | 3.2 | 3.2 | 0.00 | 0.05 | 0.05 | 60 | 1018.3 |
| 20260507012536 | 12 | 75 | 3.2 | 3.2 | 0.00 | 0.05 | 0.05 | 60 | 1018.0 |
| 20260507012032 | 12 | 89 | 1.6 | 3.2 | 0.00 | 0.05 | 0.05 | 59 | 1017.9 |
| 20260507011530 | 12 | 67 | 1.6 | 4.8 | 0.00 | 0.05 | 0.05 | 59 | 1018.0 |
| 20260507011025 | 13 | 73 | 0.0 | 4.8 | 0.00 | 0.05 | 0.05 | 59 | 1017.9 |
| 20260507010520 | 13 | 102 | 4.8 | 4.8 | 0.00 | 0.05 | 0.05 | 56 | 1018.1 |
| 20260507010017 | 13 | 102 | 4.8 | 4.8 | 0.00 | 0.05 | 0.05 | 56 | 1018.1 |
| 20260507005515 | 14 | 118 | 0.0 | 4.8 | 0.00 | 0.05 | 0.05 | 54 | 1017.7 |
| 20260507005011 | 14 | 59 | 1.6 | 4.8 | 0.00 | 0.05 | 0.05 | 55 | 1017.9 |
| 20260507004508 | 14 | 60 | 3.2 | 6.4 | 0.00 | 0.05 | 0.05 | 53 | 1017.7 |
| 20260507004005 | 14 | 86 | 0.0 | 6.4 | 0.00 | 0.05 | 0.05 | 53 | 1017.7 |
| 20260507003500 | 15 | 53 | 3.2 | 6.4 | 0.00 | 0.05 | 0.05 | 51 | 1017.8 |
| 20260507002955 | 15 | 53 | 3.2 | 6.4 | 0.00 | 0.05 | 0.05 | 51 | 1017.8 |
| 20260507002453 | 15 | 89 | 1.6 | 4.8 | 0.00 | 0.05 | 0.05 | 52 | 1017.7 |
| 20260507001949 | 15 | 101 | 4.8 | 8.0 | 0.00 | 0.05 | 0.05 | 51 | 1017.6 |
| 20260507001446 | 15 | 116 | 0.0 | 4.8 | 0.00 | 0.05 | 0.05 | 51 | 1017.5 |
| 20260507000943 | 15 | 70 | 3.2 | 4.8 | 0.00 | 0.05 | 0.05 | 53 | 1017.5 |
| 20260507000439 | 15 | 58 | 3.2 | 6.4 | 0.00 | 0.05 | 0.05 | 53 | 1017.5 |
| 20260506235934 | 15 | 85 | 1.6 | 6.4 | 0.00 | 0.05 | 0.05 | 54 | 1017.6 |
| 20260506235432 | 15 | 93 | 3.2 | 6.4 | 0.00 | 0.05 | 0.05 | 53 | 1017.6 |
| 20260506234927 | 15 | 78 | 1.6 | 6.4 | 0.00 | 0.05 | 0.05 | 53 | 1017.4 |
| 20260506234425 | 15 | 335 | 0.0 | 6.4 | 0.00 | 0.05 | 0.05 | 53 | 1017.7 |
| 20260506233923 | 15 | 34 | 3.2 | 6.4 | 0.00 | 0.05 | 0.05 | 53 | 1017.2 |
| 20260506233419 | 15 | 31 | 3.2 | 3.2 | 0.00 | 0.05 | 0.05 | 53 | 1017.6 |
| 20260506232910 | 15 | 28 | 0.0 | 4.8 | 0.00 | 0.05 | 0.05 | 53 | 1017.6 |
| 20260506232407 | 15 | 36 | 3.2 | 6.4 | 0.00 | 0.05 | 0.05 | 52 | 1017.2 |
| 20260506231903 | 16 | 117 | 4.8 | 6.4 | 0.00 | 0.05 | 0.05 | 52 | 1017.5 |
| 20260506231400 | 16 | 107 | 3.2 | 9.7 | 0.00 | 0.05 | 0.05 | 51 | 1017.6 |
| 20260506230857 | 16 | 83 | 3.2 | 6.4 | 0.00 | 0.05 | 0.05 | 52 | 1017.4 |
| 20260506230354 | 16 | 78 | 3.2 | 9.7 | 0.00 | 0.05 | 0.05 | 51 | 1017.3 |
| 20260506225850 | 16 | 73 | 4.8 | 8.0 | 0.00 | 0.05 | 0.05 | 52 | 1016.9 |
| 20260506225348 | 16 | 82 | 4.8 | 4.8 | 0.00 | 0.05 | 0.05 | 51 | 1016.8 |
| 20260506224845 | 16 | 127 | 6.4 | 20.9 | 0.00 | 0.05 | 0.05 | 51 | 1016.8 |
| 20260506224342 | 16 | 47 | 1.6 | 8.0 | 0.00 | 0.05 | 0.05 | 51 | 1016.8 |
| 20260506223838 | 16 | 74 | 6.4 | 9.7 | 0.00 | 0.05 | 0.05 | 51 | 1016.7 |
| 20260506223333 | 16 | 121 | 3.2 | 6.4 | 0.00 | 0.05 | 0.05 | 53 | 1016.4 |
| 20260506222830 | 16 | 117 | 6.4 | 9.7 | 0.00 | 0.05 | 0.05 | 54 | 1016.1 |
| 20260506222326 | 16 | 94 | 6.4 | 11.3 | 0.00 | 0.05 | 0.05 | 55 | 1016.2 |
| 20260506221824 | 16 | 125 | 8.0 | 9.7 | 0.00 | 0.05 | 0.05 | 54 | 1016.2 |
| 20260506221321 | 16 | 75 | 4.8 | 9.7 | 0.00 | 0.05 | 0.05 | 53 | 1016.1 |
| 20260506220819 | 16 | 103 | 4.8 | 8.0 | 0.00 | 0.05 | 0.05 | 54 | 1016.1 |
| 20260506220319 | 15 | 35 | 3.2 | 6.4 | 0.00 | 0.05 | 0.05 | 57 | 1016.4 |
| 20260506215816 | 15 | 66 | 1.6 | 8.0 | 0.00 | 0.05 | 0.05 | 56 | 1016.6 |
| 20260506215312 | 15 | 84 | 4.8 | 11.3 | 0.00 | 0.05 | 0.05 | 54 | 1016.7 |
| 20260506214808 | 15 | 37 | 0.0 | 9.7 | 0.00 | 0.05 | 0.05 | 56 | 1016.7 |
| 20260506214305 | 16 | 98 | 8.0 | 9.7 | 0.00 | 0.05 | 0.05 | 58 | 1016.7 |
| 20260506213803 | 15 | 110 | 3.2 | 11.3 | 0.00 | 0.05 | 0.05 | 58 | 1016.4 |
| 20260506213300 | 15 | 86 | 8.0 | 14.5 | 0.00 | 0.05 | 0.05 | 59 | 1016.8 |
| 20260506212757 | 15 | 63 | 11.3 | 12.9 | 0.00 | 0.05 | 0.05 | 59 | 1017.0 |
| 20260506212253 | 15 | 96 | 0.0 | 3.2 | 0.00 | 0.05 | 0.05 | 59 | 1016.9 |
| 20260506211748 | 16 | 70 | 4.8 | 6.4 | 0.00 | 0.05 | 0.05 | 58 | 1016.8 |
| 20260506211245 | 15 | 51 | 3.2 | 9.7 | 0.00 | 0.05 | 0.05 | 59 | 1016.8 |
| 20260506210742 | 15 | 129 | 4.8 | 11.3 | 0.00 | 0.05 | 0.05 | 59 | 1016.9 |
| 20260506210239 | 15 | 79 | 9.7 | 12.9 | 0.00 | 0.05 | 0.05 | 62 | 1017.0 |
| 20260506205736 | 15 | 56 | 6.4 | 9.7 | 0.00 | 0.05 | 0.05 | 61 | 1017.2 |
| 20260506205232 | 15 | 61 | 6.4 | 12.9 | 0.00 | 0.05 | 0.05 | 61 | 1017.4 |
| 20260506204729 | 15 | 79 | 3.2 | 6.4 | 0.00 | 0.05 | 0.05 | 61 | 1017.1 |
| 20260506204226 | 15 | 146 | 8.0 | 16.1 | 0.00 | 0.05 | 0.05 | 61 | 1017.5 |
| 20260506203724 | 15 | 43 | 6.4 | 9.7 | 0.00 | 0.05 | 0.05 | 60 | 1017.3 |
| 20260506203215 | 16 | 46 | 8.0 | 11.3 | 0.00 | 0.05 | 0.05 | 58 | 1017.5 |
| 20260506202713 | 16 | 79 | 11.3 | 14.5 | 0.00 | 0.05 | 0.05 | 59 | 1017.5 |
| 20260506202208 | 15 | 80 | 3.2 | 4.8 | 0.00 | 0.05 | 0.05 | 62 | 1017.5 |
| 20260506201706 | 15 | 51 | 8.0 | 9.7 | 0.00 | 0.05 | 0.05 | 60 | 1017.6 |
| 20260506201202 | 15 | 119 | 4.8 | 9.7 | 0.00 | 0.05 | 0.05 | 60 | 1017.7 |
| 20260506200659 | 15 | 42 | 3.2 | 19.3 | 0.00 | 0.05 | 0.05 | 60 | 1017.8 |
| 20260506200156 | 15 | 147 | 8.0 | 9.7 | 0.00 | 0.05 | 0.05 | 58 | 1017.9 |
| 20260506195652 | 15 | 141 | 9.7 | 11.3 | 0.00 | 0.05 | 0.05 | 59 | 1018.1 |
| 20260506195148 | 15 | 79 | 9.7 | 16.1 | 0.00 | 0.05 | 0.05 | 56 | 1018.0 |
| 20260506194646 | 15 | 102 | 4.8 | 11.3 | 0.00 | 0.05 | 0.05 | 57 | 1018.0 |
| 20260506194142 | 15 | 92 | 6.4 | 9.7 | 0.00 | 0.05 | 0.05 | 57 | 1018.1 |
| 20260506193640 | 15 | 87 | 4.8 | 12.9 | 0.00 | 0.05 | 0.05 | 59 | 1018.2 |
| 20260506193137 | 15 | 84 | 8.0 | 9.7 | 0.00 | 0.05 | 0.05 | 58 | 1018.2 |
| 20260506192634 | 14 | 60 | 8.0 | 16.1 | 0.00 | 0.05 | 0.05 | 59 | 1018.2 |
| 20260506192130 | 14 | 92 | 9.7 | 11.3 | 0.00 | 0.05 | 0.05 | 59 | 1018.2 |
| 20260506191627 | 14 | 148 | 3.2 | 9.7 | 0.00 | 0.05 | 0.05 | 57 | 1018.5 |
| 20260506191123 | 15 | 91 | 6.4 | 9.7 | 0.00 | 0.05 | 0.05 | 56 | 1018.4 |
| 20260506190621 | 15 | 57 | 3.2 | 6.4 | 0.00 | 0.05 | 0.05 | 59 | 1018.3 |
| 20260506190117 | 14 | 83 | 4.8 | 8.0 | 0.00 | 0.05 | 0.05 | 58 | 1018.5 |
| 20260506185614 | 14 | 52 | 1.6 | 6.4 | 0.00 | 0.05 | 0.05 | 60 | 1018.3 |
| 20260506185110 | 14 | 113 | 1.6 | 6.4 | 0.00 | 0.05 | 0.05 | 60 | 1018.4 |
| 20260506184608 | 14 | 41 | 6.4 | 8.0 | 0.00 | 0.05 | 0.05 | 59 | 1018.3 |
| 20260506184105 | 15 | 64 | 3.2 | 4.8 | 0.00 | 0.05 | 0.05 | 60 | 1018.4 |
| 20260506183601 | 14 | 67 | 3.2 | 6.4 | 0.00 | 0.05 | 0.05 | 62 | 1018.7 |
| 20260506183057 | 14 | 34 | 1.6 | 11.3 | 0.00 | 0.05 | 0.05 | 61 | 1018.7 |
| 20260506182555 | 14 | 17 | 4.8 | 8.0 | 0.00 | 0.05 | 0.05 | 61 | 1018.7 |
| 20260506182052 | 14 | 63 | 3.2 | 12.9 | 0.00 | 0.05 | 0.05 | 61 | 1018.9 |
| 20260506181550 | 14 | 52 | 3.2 | 4.8 | 0.00 | 0.05 | 0.05 | 61 | 1019.0 |
| 20260506181046 | 13 | 88 | 1.6 | 6.4 | 0.00 | 0.05 | 0.05 | 61 | 1019.0 |
| 20260506180543 | 13 | 55 | 4.8 | 4.8 | 0.00 | 0.05 | 0.05 | 60 | 1019.5 |
| 20260506180040 | 13 | 108 | 6.4 | 11.3 | 0.00 | 0.05 | 0.05 | 63 | 1019.3 |
| 20260506175536 | 13 | 79 | 6.4 | 11.3 | 0.00 | 0.05 | 0.05 | 61 | 1019.6 |
| 20260506175033 | 12 | 48 | 3.2 | 14.5 | 0.00 | 0.05 | 0.05 | 65 | 1019.8 |
| 20260506174532 | 13 | 86 | 4.8 | 9.7 | 0.00 | 0.05 | 0.05 | 64 | 1019.8 |
| 20260506174027 | 13 | 86 | 4.8 | 9.7 | 0.00 | 0.05 | 0.05 | 64 | 1019.8 |
| 20260506173525 | 12 | 70 | 6.4 | 16.1 | 0.00 | 0.05 | 0.05 | 63 | 1019.9 |
| 20260506173022 | 12 | 103 | 8.0 | 11.3 | 0.00 | 0.05 | 0.05 | 65 | 1020.0 |
| 20260506172519 | 12 | 84 | 8.0 | 11.3 | 0.00 | 0.05 | 0.05 | 63 | 1020.0 |
| 20260506172015 | 12 | 74 | 6.4 | 9.7 | 0.00 | 0.05 | 0.05 | 65 | 1020.1 |
| 20260506171514 | 12 | 68 | 3.2 | 11.3 | 0.00 | 0.05 | 0.05 | 66 | 1020.1 |
| 20260506171011 | 12 | 107 | 4.8 | 8.0 | 0.00 | 0.05 | 0.05 | 67 | 1020.0 |
| 20260506170508 | 11 | 98 | 3.2 | 14.5 | 0.00 | 0.05 | 0.05 | 67 | 1020.1 |
| 20260506170005 | 11 | 91 | 3.2 | 17.7 | 0.00 | 0.05 | 0.05 | 68 | 1020.0 |
| 20260506165504 | 11 | 105 | 6.4 | 12.9 | 0.00 | 0.05 | 0.05 | 68 | 1019.8 |
| 20260506164959 | 11 | 82 | 9.7 | 14.5 | 0.00 | 0.05 | 0.05 | 68 | 1019.6 |
| 20260506164456 | 11 | 65 | 6.4 | 17.7 | 0.00 | 0.05 | 0.05 | 67 | 1019.5 |
| 20260506163954 | 11 | 97 | 11.3 | 19.3 | 0.00 | 0.05 | 0.05 | 67 | 1019.5 |
| 20260506163449 | 11 | 89 | 9.7 | 11.3 | 0.00 | 0.05 | 0.05 | 69 | 1019.1 |
| 20260506162944 | 11 | 98 | 6.4 | 16.1 | 0.00 | 0.05 | 0.05 | 70 | 1019.1 |
| 20260506162442 | 11 | 77 | 8.0 | 14.5 | 0.00 | 0.05 | 0.05 | 69 | 1019.1 |
| 20260506161939 | 11 | 95 | 9.7 | 12.9 | 0.00 | 0.05 | 0.05 | 72 | 1019.1 |
| 20260506161437 | 11 | 68 | 9.7 | 16.1 | 0.00 | 0.05 | 0.05 | 71 | 1018.9 |
| 20260506160934 | 11 | 74 | 11.3 | 16.1 | 0.00 | 0.05 | 0.05 | 70 | 1019.0 |
| 20260506160431 | 11 | 78 | 9.7 | 17.7 | 0.00 | 0.05 | 0.05 | 70 | 1018.9 |
| 20260506155929 | 11 | 74 | 11.3 | 19.3 | 0.00 | 0.05 | 0.05 | 69 | 1018.8 |
| 20260506155426 | 12 | 94 | 11.3 | 11.3 | 0.00 | 0.05 | 0.05 | 68 | 1018.7 |
| 20260506153548 | 10 | 39 | 4.8 | 17.7 | 0.00 | 0.05 | 0.05 | 72 | 1018.5 |
| 20260506153045 | 10 | 91 | 9.7 | 12.9 | 0.00 | 0.05 | 0.05 | 71 | 1018.5 |
| 20260506152542 | 10 | 80 | 0.0 | 6.4 | 0.00 | 0.05 | 0.05 | 72 | 1018.8 |
| 20260506152040 | 10 | 52 | 11.3 | 17.7 | 0.00 | 0.05 | 0.05 | 72 | 1018.9 |
| 20260506151538 | 10 | 51 | 9.7 | 16.1 | 0.00 | 0.05 | 0.05 | 71 | 1018.6 |
| 20260506151035 | 10 | 89 | 9.7 | 17.7 | 0.00 | 0.05 | 0.05 | 71 | 1018.7 |
| 20260506150532 | 10 | 89 | 9.7 | 17.7 | 0.00 | 0.05 | 0.05 | 71 | 1018.7 |
| 20260506150029 | 10 | 77 | 6.4 | 9.7 | 0.00 | 0.05 | 0.05 | 72 | 1018.7 |
| 20260506145525 | 10 | 93 | 11.3 | 12.9 | 0.00 | 0.05 | 0.05 | 72 | 1018.6 |
| 20260506145022 | 10 | 46 | 1.6 | 6.4 | 0.00 | 0.05 | 0.05 | 75 | 1018.5 |
| 20260506144519 | 10 | 96 | 9.7 | 16.1 | 0.00 | 0.05 | 0.05 | 73 | 1018.9 |
| 20260506144016 | 10 | 35 | 3.2 | 9.7 | 0.00 | 0.05 | 0.05 | 74 | 1018.4 |
| 20260506143514 | 10 | 96 | 4.8 | 6.4 | 0.00 | 0.05 | 0.05 | 75 | 1018.5 |
| 20260506143012 | 10 | 73 | 6.4 | 12.9 | 0.00 | 0.05 | 0.05 | 75 | 1018.4 |
| 20260506142509 | 10 | 27 | 6.4 | 8.0 | 0.00 | 0.05 | 0.05 | 76 | 1018.5 |
| 20260506142008 | 10 | 95 | 4.8 | 19.3 | 0.00 | 0.05 | 0.05 | 75 | 1018.1 |
| 20260506141505 | 10 | 72 | 12.9 | 14.5 | 0.00 | 0.05 | 0.05 | 76 | 1018.1 |
| 20260506141003 | 10 | 92 | 1.6 | 9.7 | 0.00 | 0.05 | 0.05 | 78 | 1018.3 |
| 20260506140500 | 10 | 70 | 4.8 | 9.7 | 0.00 | 0.05 | 0.05 | 79 | 1018.3 |
| 20260506135957 | 10 | 71 | 11.3 | 22.5 | 0.00 | 0.05 | 0.05 | 77 | 1018.1 |
| 20260506135455 | 9 | 142 | 6.4 | 9.7 | 0.00 | 0.05 | 0.05 | 79 | 1018.3 |
| 20260506134950 | 9 | 78 | 4.8 | 16.1 | 0.00 | 0.05 | 0.05 | 79 | 1018.6 |
| 20260506134446 | 9 | 64 | 16.1 | 20.9 | 0.00 | 0.05 | 0.05 | 79 | 1018.5 |
| 20260506133943 | 8 | 75 | 3.2 | 11.3 | 0.00 | 0.05 | 0.05 | 81 | 1018.5 |
| 20260506133440 | 8 | 95 | 8.0 | 12.9 | 0.00 | 0.05 | 0.05 | 81 | 1018.5 |
| 20260506132937 | 8 | 72 | 3.2 | 22.5 | 0.00 | 0.05 | 0.05 | 81 | 1018.4 |
| 20260506132434 | 8 | 115 | 3.2 | 17.7 | 0.00 | 0.05 | 0.05 | 82 | 1018.5 |
| 20260506131931 | 8 | 67 | 6.4 | 12.9 | 0.00 | 0.05 | 0.05 | 82 | 1018.3 |
| 20260506131428 | 8 | 124 | 11.3 | 16.1 | 0.00 | 0.05 | 0.05 | 82 | 1018.4 |
| 20260506130925 | 8 | 68 | 4.8 | 11.3 | 0.00 | 0.05 | 0.05 | 84 | 1018.6 |
| 20260506130421 | 8 | 2 | 4.8 | 12.9 | 0.00 | 0.05 | 0.05 | 84 | 1018.5 |
| 20260506125919 | 8 | 92 | 0.0 | 11.3 | 0.00 | 0.05 | 0.05 | 84 | 1018.2 |
| 20260506125417 | 8 | 80 | 3.2 | 14.5 | 0.00 | 0.05 | 0.05 | 84 | 1018.2 |
| 20260506124915 | 8 | 107 | 6.4 | 14.5 | 0.00 | 0.05 | 0.05 | 84 | 1018.2 |
| 20260506124412 | 8 | 99 | 6.4 | 9.7 | 0.00 | 0.05 | 0.05 | 84 | 1018.0 |
| 20260506123910 | 8 | 109 | 14.5 | 16.1 | 0.00 | 0.05 | 0.05 | 84 | 1018.1 |
| 20260506123408 | 8 | 76 | 3.2 | 11.3 | 0.00 | 0.05 | 0.05 | 84 | 1018.1 |
| 20260506122905 | 8 | 41 | 0.0 | 11.3 | 0.00 | 0.05 | 0.05 | 84 | 1018.1 |
| 20260506122402 | 8 | 110 | 3.2 | 11.3 | 0.00 | 0.05 | 0.05 | 84 | 1018.1 |
| 20260506121900 | 8 | 83 | 3.2 | 9.7 | 0.00 | 0.05 | 0.05 | 84 | 1017.6 |
| 20260506121357 | 8 | 111 | 3.2 | 8.0 | 0.00 | 0.05 | 0.05 | 84 | 1017.8 |
| 20260506120853 | 7 | 108 | 6.4 | 8.0 | 0.00 | 0.05 | 0.05 | 84 | 1017.8 |
| 20260506120351 | 7 | 341 | 3.2 | 9.7 | 0.00 | 0.05 | 0.05 | 84 | 1017.6 |
| 20260506115849 | 7 | 97 | 4.8 | 9.7 | 0.00 | 0.05 | 0.05 | 85 | 1017.7 |
| 20260506115347 | 7 | 54 | 3.2 | 6.4 | 0.00 | 0.05 | 0.05 | 85 | 1017.3 |
| 20260506114844 | 7 | 78 | 4.8 | 9.7 | 0.00 | 0.05 | 0.05 | 84 | 1017.3 |
| 20260506114342 | 7 | 82 | 4.8 | 8.0 | 0.00 | 0.05 | 0.05 | 84 | 1017.4 |
| 20260506113840 | 7 | 100 | 4.8 | 6.4 | 0.00 | 0.05 | 0.05 | 84 | 1017.6 |
| 20260506113337 | 7 | 64 | 6.4 | 14.5 | 0.00 | 0.05 | 0.05 | 84 | 1017.6 |
| 20260506112834 | 7 | 107 | 3.2 | 9.7 | 0.00 | 0.05 | 0.05 | 84 | 1017.5 |
| 20260506112331 | 7 | 39 | 1.6 | 9.7 | 0.00 | 0.05 | 0.05 | 84 | 1017.0 |
| 20260506111829 | 7 | 105 | 6.4 | 9.7 | 0.00 | 0.05 | 0.05 | 84 | 1017.3 |
| 20260506111327 | 7 | 99 | 3.2 | 14.5 | 0.00 | 0.05 | 0.05 | 83 | 1017.2 |
| 20260506110824 | 7 | 76 | 8.0 | 11.3 | 0.00 | 0.05 | 0.05 | 82 | 1017.1 |
| 20260506110321 | 7 | 44 | 6.4 | 8.0 | 0.00 | 0.05 | 0.05 | 82 | 1016.9 |
| 20260506105818 | 7 | 62 | 0.0 | 8.0 | 0.00 | 0.05 | 0.05 | 83 | 1017.0 |
| 20260506105314 | 8 | 44 | 4.8 | 8.0 | 0.00 | 0.05 | 0.05 | 83 | 1017.0 |
| 20260506104812 | 8 | 69 | 4.8 | 8.0 | 0.00 | 0.05 | 0.05 | 83 | 1016.4 |
| 20260506104309 | 8 | 108 | 6.4 | 9.7 | 0.00 | 0.05 | 0.05 | 83 | 1016.2 |
| 20260506103807 | 8 | 54 | 4.8 | 9.7 | 0.00 | 0.05 | 0.05 | 83 | 1016.1 |
| 20260506103304 | 8 | 74 | 6.4 | 11.3 | 0.00 | 0.05 | 0.05 | 82 | 1016.1 |
| 20260506102801 | 8 | 106 | 3.2 | 8.0 | 0.00 | 0.05 | 0.05 | 83 | 1016.0 |
| 20260506102259 | 8 | 81 | 4.8 | 6.4 | 0.00 | 0.05 | 0.05 | 83 | 1015.8 |
| 20260506101756 | 8 | 105 | 4.8 | 16.1 | 0.00 | 0.05 | 0.05 | 83 | 1015.6 |
| 20260506101252 | 8 | 85 | 3.2 | 9.7 | 0.00 | 0.05 | 0.05 | 83 | 1015.5 |
| 20260506100750 | 8 | 32 | 6.4 | 11.3 | 0.00 | 0.05 | 0.05 | 83 | 1015.3 |
| 20260506100248 | 8 | 100 | 1.6 | 11.3 | 0.00 | 0.05 | 0.05 | 83 | 1015.2 |
| 20260506095747 | 8 | 88 | 8.0 | 20.9 | 0.00 | 0.05 | 0.05 | 83 | 1015.1 |
| 20260506095243 | 8 | 73 | 8.0 | 9.7 | 0.00 | 0.05 | 0.05 | 84 | 1015.1 |
| 20260506094740 | 8 | 68 | 4.8 | 9.7 | 0.00 | 0.05 | 0.05 | 84 | 1014.8 |
| 20260506094238 | 8 | 84 | 8.0 | 16.1 | 0.00 | 0.05 | 0.05 | 84 | 1014.5 |
| 20260506093737 | 8 | 133 | 1.6 | 8.0 | 0.00 | 0.05 | 0.05 | 84 | 1014.4 |
| 20260506093233 | 8 | 112 | 4.8 | 8.0 | 0.00 | 0.05 | 0.05 | 85 | 1014.4 |
| 20260506092731 | 8 | 80 | 3.2 | 11.3 | 0.00 | 0.05 | 0.05 | 85 | 1014.1 |
| 20260506092229 | 8 | 94 | 8.0 | 17.7 | 0.00 | 0.05 | 0.05 | 84 | 1014.3 |
| 20260506091727 | 8 | 95 | 4.8 | 8.0 | 0.00 | 0.05 | 0.05 | 85 | 1014.7 |
| 20260506091224 | 8 | 75 | 8.0 | 14.5 | 0.00 | 0.05 | 0.05 | 84 | 1014.8 |
| 20260506090722 | 8 | 70 | 6.4 | 17.7 | 0.00 | 0.05 | 0.05 | 83 | 1014.7 |
| 20260506090218 | 8 | 92 | 8.0 | 20.9 | 0.00 | 0.05 | 0.05 | 83 | 1014.6 |
| 20260506085715 | 8 | 97 | 9.7 | 16.1 | 0.00 | 0.05 | 0.05 | 83 | 1014.7 |
| 20260506085211 | 8 | 62 | 11.3 | 22.5 | 0.00 | 0.05 | 0.05 | 82 | 1014.8 |
| 20260506084708 | 8 | 70 | 14.5 | 19.3 | 0.00 | 0.05 | 0.05 | 82 | 1014.6 |
| 20260506084204 | 7 | 85 | 11.3 | 14.5 | 0.00 | 0.05 | 0.05 | 83 | 1014.4 |
| 20260506083702 | 8 | 71 | 4.8 | 12.9 | 0.00 | 0.05 | 0.05 | 83 | 1014.4 |
| 20260506083159 | 7 | 51 | 8.0 | 19.3 | 0.00 | 0.05 | 0.05 | 83 | 1014.5 |
| 20260506082657 | 7 | 81 | 8.0 | 9.7 | 0.00 | 0.05 | 0.05 | 85 | 1014.4 |
| 20260506082156 | 7 | 98 | 8.0 | 17.7 | 0.00 | 0.05 | 0.05 | 85 | 1014.5 |
| 20260506081655 | 7 | 143 | 3.2 | 17.7 | 0.00 | 0.05 | 0.05 | 85 | 1014.0 |
| 20260506081152 | 7 | 124 | 3.2 | 12.9 | 0.00 | 0.05 | 0.05 | 88 | 1013.8 |
| 20260506080650 | 7 | 124 | 3.2 | 12.9 | 0.00 | 0.05 | 0.05 | 88 | 1013.8 |
| 20260506080146 | 7 | 76 | 9.7 | 22.5 | 0.00 | 0.05 | 0.05 | 87 | 1014.4 |
| 20260506073130 | 7 | 94 | 12.9 | 12.9 | 0.00 | 0.05 | 0.05 | 90 | 1013.7 |
| 20260506072627 | 7 | 81 | 6.4 | 11.3 | 0.00 | 0.05 | 0.05 | 91 | 1013.8 |
| 20260506072125 | 7 | 93 | 8.0 | 12.9 | 0.00 | 0.05 | 0.05 | 91 | 1013.7 |
| 20260506071622 | 7 | 64 | 4.8 | 19.3 | 0.05 | 0.05 | 0.05 | 92 | 1013.6 |
| 20260506071119 | 7 | 16 | 1.6 | 11.3 | 0.05 | 0.05 | 0.05 | 93 | 1013.7 |
| 20260506070616 | 7 | 19 | 4.8 | 16.1 | 0.05 | 0.03 | 0.03 | 93 | 1013.8 |
| 20260506070113 | 7 | 83 | 9.7 | 9.7 | 0.13 | 0.03 | 0.03 | 93 | 1013.7 |
| 20260506062050 | 7 | 55 | 4.8 | 12.9 | 0.00 | 0.00 | 0.00 | 92 | 1014.4 |
| 20260506061546 | 7 | 116 | 12.9 | 14.5 | 0.00 | 0.00 | 0.00 | 92 | 1014.3 |
| 20260506061044 | 7 | 60 | 8.0 | 22.5 | 0.00 | 0.00 | 0.00 | 92 | 1014.3 |
| 20260506060543 | 7 | 83 | 4.8 | 9.7 | 0.00 | 0.00 | 0.00 | 92 | 1014.3 |
| 20260506051011 | 8 | 38 | 4.8 | 6.4 | 0.00 | 0.00 | 0.00 | 92 | 1014.1 |
| 20260506050509 | 8 | 306 | 0.0 | 6.4 | 0.00 | 0.00 | 0.00 | 92 | 1014.0 |
| 20260506044959 | 8 | 287 | 3.2 | 6.4 | 0.00 | 3.02 | 3.02 | 93 | 1013.6 |
| 20260506044458 | 8 | 89 | 0.0 | 6.4 | 0.00 | 3.02 | 3.02 | 93 | 1013.3 |
| 20260506043954 | 8 | 316 | 3.2 | 6.4 | 0.00 | 3.02 | 3.02 | 93 | 1013.5 |
| 20260506043451 | 8 | 54 | 4.8 | 8.0 | 0.00 | 3.02 | 3.02 | 93 | 1013.7 |
| 20260506042949 | 8 | 16 | 1.6 | 4.8 | 0.00 | 3.02 | 3.02 | 94 | 1013.6 |
| 20260506042448 | 8 | 86 | 3.2 | 6.4 | 0.00 | 3.02 | 3.02 | 94 | 1013.6 |
| 20260506041946 | 8 | 38 | 0.0 | 4.8 | 0.00 | 3.02 | 3.02 | 93 | 1014.0 |
| 20260506041444 | 8 | 105 | 6.4 | 6.4 | 0.00 | 3.02 | 3.02 | 93 | 1013.2 |
| 20260506040940 | 8 | 101 | 4.8 | 8.0 | 0.00 | 3.02 | 3.02 | 93 | 1013.2 |
| 20260506040438 | 8 | 342 | 1.6 | 4.8 | 0.00 | 3.02 | 3.02 | 93 | 1013.3 |
| 20260506035934 | 8 | 132 | 3.2 | 6.4 | 0.00 | 3.02 | 3.02 | 93 | 1013.3 |
| 20260506035431 | 8 | 83 | 3.2 | 6.4 | 0.00 | 3.02 | 3.02 | 92 | 1013.2 |
| 20260506034928 | 8 | 38 | 0.0 | 4.8 | 0.00 | 3.02 | 3.02 | 92 | 1013.2 |
| 20260506034425 | 8 | 269 | 0.0 | 6.4 | 0.00 | 3.02 | 3.02 | 91 | 1012.7 |
| 20260506033922 | 8 | 269 | 0.0 | 6.4 | 0.00 | 3.02 | 3.02 | 91 | 1012.7 |
| 20260506033420 | 8 | 60 | 3.2 | 4.8 | 0.00 | 3.02 | 3.02 | 91 | 1013.0 |
| 20260506032916 | 8 | 68 | 1.6 | 3.2 | 0.00 | 3.02 | 3.02 | 91 | 1012.8 |
| 20260506032413 | 8 | 101 | 1.6 | 4.8 | 0.00 | 3.02 | 3.02 | 91 | 1012.8 |
| 20260506031910 | 8 | 64 | 3.2 | 11.3 | 0.00 | 3.02 | 3.02 | 91 | 1012.5 |
| 20260506031407 | 8 | 48 | 4.8 | 6.4 | 0.00 | 3.02 | 3.02 | 91 | 1012.7 |
| 20260506030905 | 8 | 28 | 3.2 | 9.7 | 0.00 | 3.02 | 3.02 | 92 | 1012.2 |
| 20260506030403 | 8 | 78 | 3.2 | 6.4 | 0.00 | 3.02 | 3.02 | 92 | 1012.3 |
| 20260506025859 | 8 | 80 | 3.2 | 8.0 | 0.00 | 3.02 | 3.02 | 92 | 1012.1 |
| 20260506025356 | 8 | 59 | 4.8 | 9.7 | 0.00 | 3.02 | 3.02 | 92 | 1012.1 |
| 20260506024853 | 8 | 66 | 1.6 | 8.0 | 0.00 | 3.02 | 3.02 | 92 | 1012.2 |
| 20260506024350 | 8 | 113 | 1.6 | 4.8 | 0.00 | 3.02 | 3.02 | 92 | 1011.9 |
| 20260506023846 | 8 | 93 | 3.2 | 3.2 | 0.00 | 3.02 | 3.02 | 92 | 1011.5 |
| 20260506023343 | 8 | 87 | 4.8 | 11.3 | 0.00 | 3.02 | 3.02 | 92 | 1011.5 |
| 20260506022839 | 8 | 64 | 4.8 | 16.1 | 0.00 | 3.02 | 3.02 | 92 | 1011.5 |
| 20260506022337 | 8 | 30 | 0.0 | 6.4 | 0.00 | 3.02 | 3.02 | 92 | 1011.2 |
| 20260506021835 | 8 | 83 | 9.7 | 14.5 | 0.00 | 3.02 | 3.02 | 92 | 1011.2 |
| 20260506021332 | 8 | 72 | 1.6 | 4.8 | 0.00 | 3.02 | 3.02 | 92 | 1011.4 |